Location: Ailingen
(47.6833°N, 9.5000°E)
Time: 07:33:19
(UTC+00:00)

ATLAS 5 CENTAUR R/B - Pass Details

Date: 18 November 2025
Orbit: 373 x 1089 km, 63.3° (Epoch: 13 December)

Event Time Altitude Azimuth Distance (km) Brightness Sun altitude
Rises 16:06:51 0° 318° (NW) 2,726 5.1 -4.6°
Reaches altitude 10° 16:08:51 10° 316° (NW) 1,926 4.4 -4.9°
Maximum altitude 16:13:13 73° 232° (SW) 719 2.1 -5.6°
Drops below altitude 10° 16:18:39 10° 149° (SSE) 2,387 4.5 -6.4°
Sets 16:21:22 0° 147° (SSE) 3,439 5.3 -6.8°
